1494745200.68,7889,13.69,73876.3,14.93,-36.31,-38.23,0,*71
1494745201.89,7890,13.69,73876.8,14.91,-37.27,-39.35,0,*7B
1494745203.15,7891,13.69,73878.5,14.91,-37.99,-40.15,0,*73
1494745204.42,7892,13.69,73878.8,14.91,-37.63,-39.71,0,*79
1494745205.69,7893,13.69,73882.8,14.87,-38.67,-40.79,0,*72
1494745206.92,7894,13.69,73878.0,14.87,-37.87,-40.03,0,*79
1494745208.15,7895,13.69,73880.8,14.85,-38.61,-40.85,0,*73
1494745209.39,7896,13.69,73880.3,14.83,-37.57,-39.59,0,*73
1494745210.61,7897,13.69,73878.3,14.81,-37.27,-39.41,0,*7E
1494745211.87,7898,13.69,73882.0,14.79,-40.21,-42.57,0,*7B
1494745213.09,7899,13.69,73882.0,14.79,-40.03,-42.25,0,*7F
1494745214.31,7900,13.69,73880.8,14.75,-37.03,-38.97,0,*76
1494745215.56,7901,13.69,73878.8,14.75,-36.67,-38.91,0,*72
1494745216.81,7902,13.69,73878.8,14.79,-35.95,-38.05,0,*7E
1494745218.03,7903,13.69,73876.0,14.75,-36.67,-38.55,0,*78
1494745219.26,7904,13.69,73878.5,14.77,-35.07,-36.97,0,*78
1494745220.49,7905,13.69,73878.3,14.77,-35.83,-37.87,0,*75
1494745221.71,7906,13.69,73880.0,14.77,-37.15,-39.23,0,*7B
1494745222.93,7907,13.69,73878.8,14.77,-34.89,-37.09,0,*7A
1494745224.15,7908,13.69,73878.0,14.77,-34.89,-36.91,0,*75
1494745225.38,7909,13.69,73882.8,14.77,-36.01,-37.93,0,*75
1494745226.63,7910,13.69,73878.3,14.79,-34.83,-36.85,0,*7D
1494745227.85,7911,13.69,73878.3,14.81,-35.23,-37.15,0,*78
1494745229.05,7912,13.69,73878.8,14.81,-35.17,-37.15,0,*7C
1494745230.29,7913,13.69,73882.0,14.81,-36.91,-39.23,0,*7B
1494745231.52,7914,13.69,73878.3,14.81,-36.31,-38.23,0,*77
1494745232.73,7915,13.69,73878.5,14.81,-35.89,-37.87,0,*77
1494745233.92,7916,13.69,73876.8,14.81,-35.89,-38.05,0,*71
1494745235.15,7917,13.69,73878.8,14.81,-36.37,-38.43,0,*74
1494745236.37,7918,13.69,73878.8,14.79,-36.31,-38.43,0,*7A
1494745237.65,7919,13.69,73882.0,14.79,-36.91,-39.15,0,*73
1494745238.87,7920,13.69,73878.0,14.79,-34.77,-36.73,0,*7C
1494745240.09,7921,13.69,73880.0,14.81,-36.13,-38.05,0,*75
1494745241.37,7922,13.69,73878.8,14.83,-35.83,-37.81,0,*7D
1494745242.61,7923,13.69,73878.3,14.79,-37.15,-39.41,0,*76
1494745243.86,7924,13.69,73876.5,14.77,-39.29,-41.67,0,*75
1494745245.11,7925,13.69,73880.0,14.77,-38.11,-40.29,0,*75
1494745246.36,7926,13.69,73876.5,14.75,-40.73,-42.95,0,*7A
1494745247.56,7927,13.69,73878.8,14.65,-39.65,-41.87,0,*73
1494745248.79,7928,13.69,73882.0,14.65,-38.49,-40.65,0,*7E
1494745250.01,7929,13.69,73878.8,14.65,-39.65,-41.81,0,*7B
1494745251.21,7930,13.69,73880.5,14.61,-38.97,-41.11,0,*72
1494745252.43,7931,13.69,73882.3,14.59,-38.35,-40.53,0,*77
1494745253.64,7932,13.69,73878.5,14.57,-39.65,-41.87,0,*76
1494745254.9,7933,13.69,73882.3,14.57,-39.41,-41.67,0,*7F
1494745256.15,7934,13.69,73882.8,14.53,-41.23,-43.67,0,*75
1494745257.39,7935,13.69,73878.3,14.47,-40.29,-42.57,0,*78
1494745258.59,7936,13.69,73882.0,14.47,-39.09,-41.41,0,*73
1494745259.81,7937,13.69,73880.5,14.47,-38.43,-40.79,0,*77
1494745261.04,7938,13.69,73880.0,14.43,-39.35,-41.67,0,*72
1494745262.27,7939,13.69,73876.8,14.43,-40.03,-42.31,0,*78
1494745263.47,7940,13.69,73880.5,14.39,-39.35,-41.73,0,*75
1494745264.72,7941,13.69,73876.5,14.39,-40.41,-42.69,0,*71
1494745265.91,7942,13.69,73876.8,14.35,-40.03,-42.25,0,*70
1494745267.17,7943,13.69,73880.8,14.33,-38.29,-40.53,0,*73
1494745268.4,7944,13.69,73882.5,14.31,-37.87,-40.09,0,*72
1494745269.65,7945,13.69,73880.3,14.33,-37.03,-39.03,0,*79
1494745270.87,7946,13.69,73878.8,14.33,-36.55,-38.55,0,*7A
1494745272.13,7947,13.69,73882.3,14.33,-36.43,-38.67,0,*7D
1494745273.35,7948,13.69,73880.0,14.33,-36.19,-38.35,0,*7A
1494745274.63,7949,13.69,73880.8,14.33,-37.99,-40.29,0,*70
1494745275.88,7950,13.69,73882.0,14.33,-37.69,-39.91,0,*7A
1494745277.1,7951,13.69,73886.0,14.33,-38.35,-40.53,0,*7D
1494745278.34,7952,13.69,73882.3,14.33,-37.39,-39.35,0,*73
1494745279.57,7953,13.69,73876.5,14.33,-37.57,-39.91,0,*74
1494745280.79,7954,13.69,73880.5,14.27,-38.11,-40.15,0,*79
1494745281.99,7955,13.69,73880.5,14.31,-36.85,-38.61,0,*70
1494745283.2,7956,13.69,73882.8,14.31,-38.43,-40.73,0,*7B
1494745284.4,7957,13.69,73880.0,14.31,-37.75,-39.91,0,*72
1494745285.64,7958,13.69,73876.5,14.27,-37.09,-39.03,0,*7A
1494745286.89,7959,13.69,73882.3,14.25,-36.13,-38.05,0,*74
1494745288.12,7960,13.69,73880.8,14.27,-35.83,-37.87,0,*73
1494745289.34,7961,13.69,73884.5,14.27,-34.89,-36.91,0,*7F
1494745290.54,7962,13.69,73880.5,14.31,-35.71,-37.45,0,*75
1494745291.78,7963,13.69,73882.8,14.33,-35.13,-37.21,0,*70
1494745293.01,7964,13.69,73882.8,14.33,-36.43,-38.55,0,*7D
1494745294.27,7965,13.69,73882.3,14.33,-36.25,-38.17,0,*7A
1494745295.5,7966,13.69,73882.8,14.33,-36.55,-38.55,0,*78
1494745296.73,7967,13.69,73884.0,14.33,-35.89,-37.87,0,*7B
1494745297.93,7968,13.69,73882.8,14.35,-34.71,-36.73,0,*7E
1494745299.18,7969,13.69,73880.0,14.35,-36.25,-38.67,0,*77
1494745300.4,7970,13.69,73886.0,14.35,-37.69,-40.03,0,*7B
1494745301.62,7971,13.69,73880.8,14.33,-36.73,-38.73,0,*7E
1494745302.9,7972,13.69,73880.0,14.33,-36.37,-38.29,0,*72
1494745304.12,7973,13.69,73882.8,14.31,-35.65,-37.57,0,*73
1494745305.34,7974,13.69,73880.3,14.31,-36.13,-38.17,0,*7D
1494745306.59,7975,13.69,73880.8,14.33,-36.79,-38.85,0,*79
1494745307.84,7976,13.69,73880.3,14.33,-36.19,-38.11,0,*71
1494745309.11,7977,13.69,73884.0,14.33,-37.69,-39.71,0,*71
1494745310.36,7978,13.69,73884.8,14.33,-39.23,-41.29,0,*7C
1494745311.59,7979,13.69,73884.0,14.31,-37.75,-39.97,0,*78
1494745312.82,7980,13.69,73884.8,14.27,-38.79,-41.03,0,*78
1494745314.08,7981,13.69,73884.8,14.27,-38.23,-40.59,0,*78
1494745315.36,7982,13.69,73884.0,14.25,-39.59,-42.05,0,*7E
1494745316.61,7983,13.69,73884.0,14.23,-39.71,-42.05,0,*73
1494745317.85,7984,13.69,73882.0,14.21,-38.61,-40.91,0,*79
1494745319.08,7985,13.69,73882.8,14.19,-37.57,-39.53,0,*79
1494745320.35,7986,13.69,73882.3,14.19,-35.83,-37.93,0,*73
1494745321.58,7987,13.69,73882.5,14.21,-36.07,-38.35,0,*75
1494745322.81,7988,13.69,73878.8,14.21,-35.71,-37.75,0,*73
1494745324.06,7989,13.69,73880.5,14.21,-34.95,-36.85,0,*77
1494745325.29,7990,13.69,73882.3,14.21,-35.71,-37.75,0,*7A
1494745326.52,7991,13.69,73882.5,14.23,-35.83,-37.75,0,*74
1494745327.77,7992,13.69,73880.5,14.23,-36.25,-38.29,0,*7E
1494745329.01,7993,13.69,73880.5,14.21,-36.43,-38.35,0,*70
1494745330.23,7994,13.69,73882.3,14.23,-36.67,-38.79,0,*7B
1494745331.45,7995,13.69,73882.0,14.23,-35.65,-37.75,0,*78
1494745332.68,7996,13.69,73886.0,14.23,-36.25,-38.35,0,*77
1494745333.91,7997,13.69,73880.5,14.23,-35.77,-37.93,0,*71
1494745335.16,7998,13.69,73880.8,14.21,-36.61,-38.55,0,*7D
1494745336.42,7999,13.69,73886.0,14.21,-35.95,-38.17,0,*72
1494745337.67,8000,13.69,73884.5,14.21,-37.21,-39.35,0,*78
1494745338.95,8001,13.69,73886.0,14.21,-35.83,-37.51,0,*7F
1494745340.15,8002,13.69,73880.5,14.23,-35.47,-37.57,0,*70
1494745341.43,8003,13.69,73884.5,14.21,-35.95,-37.93,0,*74
1494745342.65,8004,13.69,73884.8,14.23,-34.19,-36.07,0,*78
1494745343.93,8005,13.69,73882.0,14.25,-34.31,-36.13,0,*70
1494745345.16,8006,13.69,73884.0,14.27,-33.77,-35.77,0,*75
1494745346.39,8007,13.69,73884.5,14.27,-33.37,-35.23,0,*71
1494745347.62,8008,13.69,73882.5,14.31,-33.49,-35.47,0,*72
1494745348.88,8009,13.69,73886.0,14.33,-34.71,-36.79,0,*73
1494745350.13,8010,13.69,73884.8,14.33,-34.77,-36.61,0,*74
1494745351.38,8011,13.69,73882.5,14.35,-33.27,-35.07,0,*72
1494745352.65,8012,13.69,73884.3,14.37,-33.27,-35.07,0,*73
1494745353.88,8013,13.69,73886.5,14.39,-33.67,-35.53,0,*79
1494745355.11,8014,13.69,73886.5,14.39,-34.01,-35.71,0,*79
1494745356.38,8015,13.69,73886.8,14.41,-34.19,-36.25,0,*7C
1494745357.61,8016,13.69,73886.3,14.43,-34.19,-36.19,0,*72
1494745358.85,8017,13.69,73884.5,14.43,-34.35,-36.37,0,*71
1494745360.1,8018,13.69,73884.3,14.43,-34.19,-36.37,0,*70
1494745361.32,8019,13.69,73888.5,14.45,-35.17,-37.15,0,*79
1494745362.57,8020,13.69,73884.3,14.45,-33.61,-35.47,0,*71
1494745363.81,8021,13.69,73884.0,14.45,-33.55,-35.41,0,*71
1494745365.01,8022,13.69,73884.5,14.47,-33.55,-35.47,0,*76
1494745366.23,8023,13.69,73884.5,14.49,-33.83,-35.71,0,*77
1494745367.48,8024,13.69,73886.3,14.49,-34.13,-36.13,0,*79
1494745368.75,8025,13.69,73882.8,14.49,-33.49,-35.35,0,*77
1494745369.99,8026,13.69,73884.0,14.53,-33.43,-35.29,0,*78
1494745371.24,8027,13.69,73886.5,14.55,-33.27,-35.13,0,*74
1494745372.44,8028,13.69,73886.5,14.57,-33.03,-35.01,0,*7C
1494745373.63,8029,13.69,73888.0,14.57,-32.91,-34.71,0,*71
1494745374.92,8030,13.69,73884.0,14.59,-32.75,-34.65,0,*78
1494745376.17,8031,13.69,73884.3,14.63,-32.79,-34.77,0,*7F
1494745377.4,8032,13.69,73888.0,14.63,-33.83,-35.89,0,*78
1494745378.65,8033,13.69,73888.0,14.63,-32.97,-34.77,0,*7D
1494745379.88,8034,13.69,73884.5,14.65,-33.09,-35.01,0,*7A
1494745381.1,8035,13.69,73886.3,14.65,-33.37,-35.23,0,*76
1494745382.37,8036,13.69,73886.0,14.67,-32.85,-34.83,0,*74
1494745383.61,8037,13.69,73884.5,14.67,-33.09,-35.01,0,*7B
1494745384.84,8038,13.69,73886.5,14.69,-32.57,-34.31,0,*72
1494745386.07,8039,13.69,73886.3,14.71,-32.29,-34.25,0,*76
1494745387.28,8040,13.69,73886.3,14.75,-32.35,-34.25,0,*71
1494745388.52,8041,13.69,73884.0,14.75,-32.97,-34.89,0,*7E
1494745389.75,8042,13.69,73884.3,14.77,-33.21,-35.07,0,*74
1494745390.95,8043,13.69,73884.0,14.77,-33.55,-35.47,0,*72
1494745392.17,8044,13.69,73886.3,14.77,-34.65,-36.97,0,*7F
1494745393.4,8045,13.69,73886.8,14.79,-36.85,-38.97,0,*72
1494745394.63,8046,13.69,73886.8,14.77,-34.35,-36.01,0,*77
1494745395.86,8047,13.69,73886.8,14.77,-33.21,-34.95,0,*7B
1494745397.05,8048,13.69,73882.8,14.77,-33.03,-34.89,0,*79
1494745398.28,8049,13.69,73886.8,14.79,-33.21,-35.01,0,*77
1494745399.47,8050,13.69,73886.8,14.81,-32.51,-34.41,0,*7B
1494745400.74,8051,13.69,73884.3,14.83,-32.97,-34.83,0,*7C
1494745401.93,8052,13.69,73888.3,14.85,-33.55,-35.47,0,*7F
1494745403.13,8053,13.69,73890.0,14.85,-34.25,-36.07,0,*79
1494745404.38,8054,13.69,73886.8,14.83,-33.83,-35.83,0,*7C
1494745405.66,8055,13.69,73884.5,14.83,-34.35,-36.25,0,*78
1494745406.86,8056,13.69,73886.8,14.85,-33.55,-35.47,0,*7B
1494745408.09,8057,13.69,73886.5,14.85,-33.73,-35.71,0,*7B
1494745409.31,8058,13.69,73886.5,14.85,-35.29,-37.21,0,*7A
1494745410.5,8059,13.69,73886.5,14.85,-35.47,-37.45,0,*71
1494745411.7,8060,13.69,73890.3,14.85,-34.41,-36.31,0,*7E
1494745412.92,8061,13.69,73888.0,14.85,-33.55,-35.65,0,*7F
1494745414.14,8062,13.69,73888.3,14.85,-33.83,-35.65,0,*77
1494745415.37,8063,13.69,73886.5,14.85,-34.59,-36.49,0,*7B
1494745416.62,8064,13.69,73884.3,14.85,-33.73,-35.65,0,*7E
1494745417.9,8065,13.69,73888.8,14.87,-34.35,-36.37,0,*7C
1494745419.15,8066,13.69,73888.3,14.87,-35.47,-37.51,0,*7A
1494745420.42,8067,13.69,73888.5,14.87,-34.53,-36.55,0,*7A
1494745421.65,8068,13.69,73884.8,14.87,-33.95,-35.77,0,*7B
1494745422.93,8069,13.69,73888.0,14.87,-33.43,-35.41,0,*74
1494745424.15,8070,13.69,73886.3,14.89,-33.55,-35.41,0,*75
1494745425.38,8071,13.69,73888.5,14.89,-33.73,-35.59,0,*79
1494745426.58,8072,13.69,73890.0,14.89,-33.37,-35.17,0,*70
1494745427.81,8073,13.69,73884.3,14.89,-34.31,-36.19,0,*7D
1494745429.03,8074,13.69,73888.3,14.89,-33.55,-35.53,0,*72
1494745430.29,8075,13.69,73888.8,14.91,-34.35,-36.31,0,*7C
1494745431.54,8076,13.69,73888.3,14.91,-34.59,-36.49,0,*7A
1494745432.8,8077,13.69,73890.3,14.91,-34.07,-35.95,0,*72
1494745434.05,8078,13.69,73888.0,14.91,-33.67,-35.65,0,*73
1494745435.26,8079,13.69,73888.3,14.89,-34.25,-36.01,0,*7B
1494745436.51,8080,13.69,73888.5,14.93,-33.49,-35.53,0,*7F
1494745437.71,8081,13.69,73890.3,14.93,-35.47,-37.57,0,*70
1494745438.94,8082,13.69,73884.5,14.91,-35.01,-37.03,0,*72
1494745440.18,8083,13.75,73892.5,14.91,-34.07,-35.89,0,*74
1494745441.41,8084,13.69,73888.5,14.91,-35.53,-37.45,0,*71
1494745442.61,8085,13.75,73892.0,14.93,-33.55,-35.47,0,*72
1494745443.84,8086,13.69,73890.3,14.93,-33.89,-35.77,0,*73
1494745445.08,8087,13.69,73890.8,14.93,-33.49,-35.47,0,*7D
1494745446.33,8088,13.69,73890.8,14.95,-33.67,-35.65,0,*78
1494745447.58,8089,13.69,73892.0,14.95,-33.27,-35.13,0,*7C
1494745448.83,8090,13.69,73890.8,14.95,-33.67,-35.65,0,*71
1494745450.09,8091,13.69,73888.0,14.95,-34.95,-36.97,0,*74
1494745451.31,8092,13.69,73890.8,14.95,-35.13,-37.03,0,*74
1494745452.57,8093,13.69,73888.3,14.95,-34.01,-35.89,0,*77
1494745453.83,8094,13.75,73894.3,14.95,-33.49,-35.47,0,*79
1494745455.08,8095,13.69,73890.0,14.99,-32.97,-34.71,0,*72
1494745456.35,8096,13.69,73888.8,14.99,-33.61,-35.41,0,*7B
1494745457.58,8097,13.69,73888.5,15.01,-33.37,-35.41,0,*79
1494745458.83,8098,13.69,73888.5,15.01,-33.31,-35.35,0,*73
1494745460.09,8099,13.69,73890.0,15.03,-33.37,-35.35,0,*76
1494745461.34,8100,13.69,73886.3,15.03,-32.79,-34.59,0,*77
1494745462.62,8101,13.75,73892.0,15.07,-33.43,-35.41,0,*72
1494745463.84,8102,13.75,73888.8,15.07,-34.41,-36.43,0,*75
1494745465.06,8103,13.69,73888.0,15.07,-34.89,-36.85,0,*7A
1494745466.25,8104,13.69,73890.5,15.05,-35.13,-37.03,0,*72
1494745467.48,8105,13.69,73888.0,15.03,-35.47,-37.45,0,*76
1494745468.74,8106,13.75,73892.5,15.03,-33.89,-35.77,0,*72
1494745469.96,8107,13.69,73892.3,15.05,-33.55,-35.53,0,*72
1494745471.24,8108,13.69,73890.5,15.07,-33.09,-34.95,0,*7D
1494745472.44,8109,13.69,73890.5,15.05,-33.67,-35.59,0,*77
1494745473.66,8110,13.69,73892.5,15.07,-34.13,-36.19,0,*7E
1494745474.89,8111,13.69,73890.3,15.07,-34.13,-36.19,0,*7F
1494745476.14,8112,13.69,73888.3,15.07,-34.01,-36.19,0,*7F
1494745477.39,8113,13.69,73892.0,15.09,-33.89,-35.83,0,*77
1494745478.59,8114,13.69,73890.0,15.09,-33.03,-35.01,0,*78
1494745479.81,8115,13.69,73892.5,15.11,-33.03,-35.13,0,*73
1494745481.06,8116,13.69,73888.8,15.11,-32.63,-34.59,0,*78
1494745482.29,8117,13.69,73892.5,15.11,-34.25,-36.01,0,*72
1494745483.57,8118,13.69,73890.5,15.11,-33.73,-35.53,0,*7D
1494745484.77,8119,13.75,73894.5,15.13,-33.37,-35.29,0,*73
1494745485.99,8120,13.69,73888.8,15.13,-32.91,-34.95,0,*72
1494745487.25,8121,13.69,73894.0,15.15,-34.59,-36.49,0,*74
1494745488.45,8122,13.69,73894.0,15.13,-33.83,-35.77,0,*7F
1494745489.69,8123,13.69,73890.0,15.13,-34.01,-35.89,0,*72
1494745490.92,8124,13.69,73890.5,15.15,-33.95,-35.89,0,*79
1494745492.14,8125,13.69,73890.3,15.13,-34.59,-36.49,0,*76
1494745493.4,8126,13.69,73890.3,15.15,-34.25,-36.25,0,*72
1494745494.63,8127,13.69,73890.3,15.15,-34.71,-36.97,0,*7B
1494745495.88,8128,13.69,73894.3,15.13,-35.83,-38.23,0,*7F
1494745497.07,8129,13.69,73894.3,15.13,-35.59,-37.75,0,*75
1494745498.29,8130,13.69,73894.0,15.13,-34.25,-36.25,0,*73
1494745499.55,8131,13.69,73890.3,15.15,-33.49,-35.47,0,*7E
1494745500.75,8132,13.69,73888.5,15.13,-33.37,-35.29,0,*7A
1494745501.97,8133,13.75,73892.5,15.13,-33.55,-35.41,0,*71
1494745503.23,8134,13.75,73892.0,15.15,-33.31,-35.29,0,*7C
1494745504.5,8135,13.69,73888.5,15.15,-33.77,-35.65,0,*77
1494745505.75,8136,13.69,73892.3,15.21,-32.45,-34.47,0,*72
1494745507.02,8137,13.69,73892.8,15.21,-32.63,-34.35,0,*72
1494745508.28,8138,13.69,73892.8,15.21,-34.19,-36.31,0,*70
1494745509.54,8139,13.69,73892.0,15.21,-34.71,-36.61,0,*7A
1494745510.78,8140,13.75,73892.3,15.17,-37.03,-39.15,0,*7B
1494745512.06,8141,13.69,73892.5,15.17,-34.35,-36.37,0,*73
1494745513.28,8142,13.69,73892.0,15.17,-34.13,-36.07,0,*77
1494745514.55,8143,13.69,73892.3,15.21,-33.73,-35.47,0,*75
1494745515.83,8144,13.75,73892.5,15.21,-32.85,-34.65,0,*7B
1494745517.1,8145,13.75,73892.5,15.21,-32.79,-34.83,0,*71
1494745518.34,8146,13.75,73892.5,15.21,-33.37,-35.29,0,*78
1494745519.55,8147,13.75,73892.3,15.23,-33.83,-35.89,0,*7E
1494745520.79,8148,13.69,73892.8,15.23,-34.65,-36.55,0,*7C
1494745522.03,8149,13.75,73892.0,15.23,-34.47,-36.37,0,*79
1494745523.23,8150,13.69,73892.0,15.23,-35.01,-37.27,0,*72
1494745524.48,8151,13.75,73892.3,15.25,-33.67,-35.41,0,*71
1494745525.7,8152,13.75,73892.5,15.23,-33.55,-35.23,0,*71
1494745526.93,8153,13.69,73892.3,15.23,-33.37,-35.35,0,*73
1494745528.18,8154,13.69,73892.0,15.25,-33.31,-35.17,0,*74
1494745529.38,8155,13.75,73894.8,15.27,-34.25,-36.07,0,*77
1494745530.65,8156,13.69,73892.3,15.29,-33.73,-35.65,0,*79
1494745531.91,8157,13.69,73892.5,15.27,-35.65,-37.63,0,*73
1494745533.13,8158,13.75,73894.5,15.27,-35.71,-37.81,0,*75
1494745534.37,8159,13.75,73894.0,15.23,-33.89,-35.89,0,*7B
1494745535.62,8160,13.75,73892.5,15.25,-33.55,-35.35,0,*71
1494745536.87,8161,13.75,73892.5,15.25,-34.47,-36.49,0,*7C
1494745538.1,8162,13.69,73892.3,15.25,-36.31,-38.43,0,*78
1494745539.32,8163,13.75,73892.5,15.25,-35.13,-37.03,0,*71
1494745540.58,8164,13.69,73894.3,15.25,-34.13,-36.25,0,*72
1494745541.84,8165,13.69,73892.5,15.25,-34.65,-36.55,0,*75
1494745543.07,8166,13.69,73892.3,15.25,-34.77,-36.85,0,*78
1494745544.34,8167,13.69,73892.5,15.25,-35.53,-37.63,0,*77
1494745545.54,8168,13.75,73896.3,15.23,-35.89,-37.87,0,*73
1494745546.74,8169,13.75,73894.8,15.23,-35.89,-38.05,0,*77
1494745547.95,8170,13.75,73894.3,15.23,-36.73,-38.85,0,*71
1494745549.22,8171,13.75,73892.5,15.17,-36.61,-38.91,0,*71
1494745550.47,8172,13.75,73892.5,15.17,-37.51,-39.65,0,*7A
1494745551.69,8173,13.69,73892.5,15.15,-36.85,-38.97,0,*7D
1494745552.95,8174,13.75,73894.5,15.15,-35.07,-37.03,0,*71
1494745554.16,8175,13.75,73894.8,15.13,-35.35,-37.27,0,*71
1494745555.36,8176,13.75,73896.8,15.13,-35.77,-37.75,0,*73
1494745556.58,8177,13.75,73894.5,15.13,-35.89,-37.81,0,*78
1494745557.78,8178,13.69,73890.0,15.13,-36.07,-38.05,0,*71
1494745559.03,8179,13.75,73892.8,15.11,-34.95,-36.73,0,*74
1494745560.31,8180,13.69,73892.3,15.11,-34.31,-36.13,0,*7A
1494745561.58,8181,13.69,73888.8,15.11,-33.31,-35.35,0,*7B
1494745562.83,8182,13.75,73894.5,15.15,-33.67,-35.65,0,*7A
1494745564.08,8183,13.75,73894.5,15.15,-34.59,-36.49,0,*7C
1494745565.31,8184,13.69,73892.3,15.17,-34.13,-36.07,0,*7D
1494745566.56,8185,13.75,73894.3,15.17,-33.77,-35.47,0,*7E
1494745567.81,8186,13.69,73888.5,15.17,-35.71,-37.81,0,*75
1494745569.04,8187,13.69,73890.0,15.17,-36.19,-38.35,0,*79
1494745570.26,8188,13.75,73892.5,15.17,-34.41,-36.43,0,*76
1494745571.49,8189,13.75,73892.3,15.15,-34.77,-36.85,0,*7A
1494745572.74,8190,13.75,73892.0,15.15,-33.95,-35.83,0,*7C
1494745573.99,8191,13.69,73890.5,15.15,-34.95,-36.97,0,*7C
1494745575.24,8192,13.75,73896.3,15.15,-36.07,-38.29,0,*7D
1494745576.48,8193,13.75,73892.0,15.15,-34.59,-36.43,0,*77
1494745577.7,8194,13.75,73892.8,15.17,-33.83,-35.71,0,*70
1494745578.98,8195,13.75,73896.0,15.17,-33.77,-35.65,0,*7F
1494745580.2,8196,13.69,73888.0,15.17,-34.89,-36.85,0,*77
1494745581.42,8197,13.75,73894.0,15.17,-36.19,-38.35,0,*78
1494745582.68,8198,13.75,73894.5,15.17,-36.01,-37.99,0,*77
1494745583.92,8199,13.75,73894.8,15.15,-35.65,-37.57,0,*77
1494745585.12,8200,13.75,73892.5,15.13,-36.31,-38.55,0,*7D
1494745586.38,8201,13.75,73894.8,15.11,-35.53,-37.39,0,*7C
1494745587.58,8202,13.75,73894.3,15.13,-33.83,-35.71,0,*78
1494745588.8,8203,13.75,73894.8,15.15,-34.25,-36.19,0,*79
1494745590.07,8204,13.69,73892.3,15.17,-34.01,-35.89,0,*70
1494745591.32,8205,13.75,73894.3,15.15,-33.95,-35.83,0,*73
1494745592.54,8206,13.75,73892.8,15.17,-34.13,-36.07,0,*74
1494745593.79,8207,13.75,73890.8,15.21,-34.71,-36.55,0,*73
1494745595.05,8208,13.75,73892.0,15.21,-34.07,-35.95,0,*72
1494745596.27,8209,13.75,73892.5,15.17,-35.47,-37.27,0,*78
1494745597.53,8210,13.69,73888.5,15.17,-33.95,-35.83,0,*75
1494745598.81,8211,13.75,73894.0,15.17,-34.35,-36.25,0,*76
1494745600.06,8212,13.75,73892.5,15.21,-33.95,-35.83,0,*72
1494745601.28,8213,13.75,73894.0,15.23,-33.55,-35.23,0,*77
1494745602.48,8214,13.75,73890.3,15.23,-33.15,-35.17,0,*73
1494745603.72,8215,13.75,73892.0,15.23,-34.47,-36.25,0,*70
1494745604.95,8216,13.75,73888.8,15.25,-33.21,-35.13,0,*74
1494745606.22,8217,13.75,73892.8,15.25,-33.49,-35.41,0,*7C
1494745607.46,8218,13.75,73896.0,15.25,-34.07,-35.89,0,*7A
1494745608.74,8219,13.75,73892.0,15.25,-33.89,-35.95,0,*77
1494745609.98,8220,13.75,73892.3,15.25,-33.83,-35.77,0,*7B
1494745611.21,8221,13.75,73890.8,15.27,-33.67,-35.53,0,*74
1494745612.48,8222,13.75,73890.5,15.29,-33.61,-35.41,0,*7C
1494745613.7,8223,13.75,73892.5,15.31,-33.55,-35.41,0,*73
1494745614.9,8224,13.75,73894.3,15.31,-34.13,-36.07,0,*70
1494745616.09,8225,13.69,73890.5,15.31,-33.55,-35.59,0,*7C
1494745617.35,8226,13.75,73892.3,15.33,-33.31,-35.01,0,*72
1494745618.57,8227,13.75,73890.5,15.31,-33.31,-35.17,0,*76
1494745619.82,8228,13.75,73888.3,15.33,-33.21,-34.95,0,*71
1494745621.09,8229,13.75,73892.0,15.33,-33.31,-35.07,0,*7B
1494745622.34,8230,13.75,73892.8,15.33,-32.85,-34.77,0,*7B
1494745623.56,8231,13.75,73892.3,15.35,-33.09,-34.89,0,*78
1494745624.81,8232,13.75,73892.3,15.37,-34.95,-37.03,0,*7A
1494745626.05,8233,13.75,73894.0,15.35,-38.49,-41.03,0,*75
1494745627.3,8234,13.75,73890.3,15.33,-38.35,-40.59,0,*71
1494745628.54,8235,13.75,73892.3,15.31,-37.63,-39.71,0,*7A
1494745629.74,8236,13.75,73894.0,15.27,-35.47,-37.57,0,*70
1494745630.98,8237,13.75,73892.8,15.27,-34.59,-36.61,0,*7B
1494745632.21,8238,13.75,73888.5,15.27,-33.95,-35.83,0,*7C
1494745633.42,8239,13.75,73892.8,15.29,-33.03,-34.89,0,*77
1494745634.66,8240,13.75,73892.3,15.29,-34.47,-36.55,0,*7D
1494745635.93,8241,13.75,73890.8,15.29,-33.77,-35.65,0,*78
1494745637.2,8242,13.75,73894.5,15.29,-33.61,-35.41,0,*7A
1494745638.45,8243,13.75,73892.3,15.29,-33.09,-35.01,0,*71
1494745639.68,8244,13.75,73890.3,15.31,-34.83,-36.73,0,*7C
1494745640.9,8245,13.75,73894.5,15.31,-36.67,-39.03,0,*7D
1494745642.15,8246,13.75,73892.3,15.27,-37.51,-39.71,0,*78
1494745643.34,8247,13.75,73894.3,15.27,-36.67,-38.73,0,*7E
1494745644.57,8248,13.75,73896.5,15.27,-34.19,-36.19,0,*78
1494745645.82,8249,13.75,73892.5,15.27,-33.77,-35.53,0,*7B
1494745647.04,8250,13.75,73894.8,15.27,-34.07,-36.01,0,*77
1494745648.26,8251,13.75,73892.8,15.27,-33.77,-35.71,0,*72
1494745649.53,8252,13.75,73894.0,15.29,-33.77,-35.65,0,*7A
1494745650.78,8253,13.75,73892.5,15.29,-34.89,-36.91,0,*75
1494745651.99,8254,13.75,73892.5,15.31,-33.03,-34.83,0,*7F
1494745653.19,8255,13.75,73892.3,15.31,-32.69,-34.59,0,*74
1494745654.44,8256,13.75,73894.3,15.33,-33.21,-35.07,0,*72
1494745655.66,8257,13.75,73894.8,15.33,-32.57,-34.59,0,*79
1494745656.89,8258,13.75,73896.0,15.35,-32.75,-34.71,0,*7A
1494745658.11,8259,13.75,73892.3,15.35,-32.97,-34.89,0,*70
1494745659.36,8260,13.75,73894.5,15.37,-32.23,-34.01,0,*77
1494745660.6,8261,13.75,73894.8,15.37,-33.89,-35.71,0,*71
1494745661.82,8262,13.75,73892.0,15.37,-33.15,-35.13,0,*73
1494745663.03,8263,13.75,73892.0,15.37,-33.15,-34.89,0,*70
1494745664.24,8264,13.75,73892.0,15.39,-32.51,-34.35,0,*7F
1494745665.47,8265,13.75,73892.0,15.43,-32.63,-34.47,0,*77
1494745666.69,8266,13.75,73890.5,15.43,-33.31,-35.17,0,*76
1494745667.92,8267,13.75,73894.3,15.43,-33.73,-35.59,0,*7B
1494745669.14,8268,13.75,73892.0,15.47,-32.97,-34.77,0,*76
1494745670.37,8269,13.75,73892.8,15.47,-33.49,-35.47,0,*77
1494745671.63,8270,13.75,73892.8,15.45,-34.07,-35.95,0,*7F
1494745672.87,8271,13.75,73894.0,15.47,-35.65,-37.81,0,*7E
1494745674.12,8272,13.75,73894.3,15.45,-34.83,-36.67,0,*7F
1494745675.32,8273,13.75,73890.8,15.43,-33.37,-35.17,0,*74
1494745676.57,8274,13.75,73892.8,15.45,-33.09,-35.01,0,*7F
1494745677.85,8275,13.75,73888.5,15.45,-33.73,-35.65,0,*71
1494745679.09,8276,13.75,73892.0,15.45,-33.31,-35.17,0,*71
1494745680.34,8277,13.75,73894.8,15.45,-33.67,-35.65,0,*76
1494745681.61,8278,13.75,73892.0,15.45,-34.01,-35.65,0,*7E
1494745682.86,8279,13.75,73896.0,15.45,-33.83,-35.65,0,*72
1494745684.1,8280,13.75,73894.0,15.45,-33.09,-34.77,0,*74
1494745685.29,8281,13.75,73892.3,15.47,-32.91,-34.59,0,*7B
1494745686.57,8282,13.75,73892.5,15.45,-34.83,-36.79,0,*7F
1494745687.78,8283,13.75,73892.5,15.47,-35.53,-37.57,0,*7D
1494745689.03,8284,13.75,73890.3,15.45,-34.35,-36.07,0,*7D
1494745690.3,8285,13.75,73888.3,15.45,-34.95,-36.79,0,*7F
1494745691.55,8286,13.75,73890.3,15.45,-34.25,-35.95,0,*76
1494745692.8,8287,13.75,73890.5,15.45,-34.41,-36.13,0,*78
1494745694.02,8288,13.75,73888.8,15.47,-33.83,-35.65,0,*7E
1494745695.27,8289,13.75,73890.5,15.45,-33.49,-35.29,0,*73
1494745696.5,8290,13.75,73890.5,15.47,-33.43,-35.13,0,*7A
1494745697.73,8291,13.75,73890.0,15.47,-34.07,-35.95,0,*72
1494745698.95,8292,13.75,73890.5,15.47,-33.15,-34.83,0,*73
1494745700.14,8293,13.75,73890.8,15.49,-33.03,-34.77,0,*70
1494745701.36,8294,13.75,73890.3,15.49,-32.57,-34.31,0,*75
1494745702.62,8295,13.75,73894.8,15.49,-32.75,-34.65,0,*75